• MPC Preparation (Info)

  • MPEC 2000-Y33 : S/2000 S 12

    The following Minor Planet Electronic Circular may be linked-to from your own Web pages, but must not otherwise be redistributed electronically.

    A form allowing access to any MPEC is at the bottom of this page.


    Read MPEC 2000-Y32 Read MPEC 2000-Y34


    M.P.E.C. 2000-Y33                                Issued 2000 Dec. 22, 21:52 UT
    
         The Minor Planet Electronic Circulars contain information on unusual
             minor planets and routine data on comets.  They are published
       on behalf of Commission 20 of the International Astronomical Union by the
              Minor Planet Center, Smithsonian Astrophysical Observatory,
                              Cambridge, MA 02138, U.S.A.
    
                 Prepared using the Tamkin Foundation Computer Network
    
                                  MPC@CFA.HARVARD.EDU
              URL http://cfa-www.harvard.edu/iau/mpc.html  ISSN 1523-6714
    
                                      S/2000 S 12
    
    Observations:
        SK00S120  C2000 09 23.43969 03 59 48.21 +18 21 08.2                      568
        SK00S120  C2000 09 23.56861 03 59 47.52 +18 21 05.2          23.9 R      568
        SK00S120  C2000 09 23.63303 03 59 47.16 +18 21 03.7          23.8 R      568
        SK00S120  C2000 09 24.44657 03 59 43.02 +18 20 43.2          23.9 R      568
        SK00S120  C2000 09 24.50859 03 59 42.70 +18 20 41.3          23.9 R      568
        SK00S120  C2000 09 24.57290 03 59 42.31 +18 20 40.1          24.0 R      568
        SK00S120  C2000 11 04.22712 03 50 44.43 +17 49 13.7                      309
        SK00S120  C2000 11 04.27113 03 50 43.57 +17 49 11.1                      309
        SK00S120  C2000 12 18.17633 03 36 21.53 +17 05 34.6          23.4 R      695
        SK00S120  C2000 12 18.25217 03 36 20.27 +17 05 30.6          23.6 R      695
        SK00S120  C2000 12 18.30313 03 36 19.40 +17 05 27.9                      695
    
    Observer details:
    309 Cerro Paranal.  Observers UT1 Science Team.  Measurer B. Gladman.
        ESO VLT-UT1 8-m reflector + CCD.
    568 Mauna Kea.  Observers B. Gladman, J. Kavelaars.  3.6-m Canada-France-Hawaii
        Telescope + CCD.
    695 Kitt Peak.  Observers M. Holman, B. Gladman, T. Grav.  4-m reflector + CCD.
    
    Orbital elements:
    S/2000 S 12
    Epoch 2001 Apr. 1.0 TT = JDT 2452000.5                  Marsden
    M 186.77371              (2000.0)            P               Q
    n   0.40542719     Peri.    8.12139     -0.42851919     -0.89932413
    a   0.1191037      Node   252.71210     -0.83401714     +0.35662509
    e   0.0866045      Incl.  174.76580     -0.34754384     +0.25305070
    P   2.43           H   14.3           P/d   887.95
    Residuals in seconds of arc
    000923 568  0.2+  0.0     000924 568  0.2+  0.3-    001218 695  0.1-  0.5+
    000923 568  0.0   0.0     000924 568  0.0   0.1+    001218 695  0.2+  0.1-
    000923 568  0.1-  0.1+    001104 309  0.0   0.0     001218 695  0.0   0.4-
    000924 568  0.2-  0.1+    001104 309  0.0   0.1+
    
    Ephemeris:
        S/2000 S 12                                                  q = 0.1088
    Date    TT    R. A. (2000) Decl.     Delta      r    dR.A. ("/m)  dDecl.m1"/')
    2000 12 22    03 35.34   +17 02.8    8.396    0.128  1838+/2.14+   651+/ 10.8+
    2001 01 01    03 33.07   +16 57.0    8.509    0.128  1695+/1.97+   605+/ 10.1+
    2001 01 11    03 31.44   +16 53.6    8.643    0.129  1540+/1.79+   552+/  9.2+
    2001 01 21    03 30.52   +16 52.9    8.793    0.129  1376+/1.60+   495+/  8.3+
    2001 01 31    03 30.35   +16 55.0    8.954    0.129  1202+/1.40+   433+/  7.2+
    2001 02 10    03 30.93   +16 59.7    9.122    0.129  1021+/1.19+   369+/  6.1+
    2001 02 20    03 32.24   +17 06.9    9.291    0.129   834+/0.97+   302+/  5.0+
    2001 03 02    03 34.24   +17 16.3    9.456    0.129   642+/0.75+   235+/  3.9+
    2001 03 12    03 36.88   +17 27.7    9.613    0.129   447+/0.52+   168+/  2.8+
    2001 03 22    03 40.09   +17 40.6    9.758    0.129   248+/0.29+   102+/  1.7+
    2001 04 01    03 43.81   +17 54.7    9.887    0.129    48+/0.06+    38+/  0.6+
    2001 04 11    03 47.94   +18 09.6    9.998    0.129   152-/0.18-    23-/  0.4-
    
    Brian G. Marsden             (C) Copyright 2000 MPC           M.P.E.C. 2000-Y33
    

    Read MPEC 2000-Y32 Read MPEC 2000-Y34


    MPEC number:

    Enter an MPEC number in one of the following forms:

    • 1997-B01 (the full form)
    • J97B01 (the packed version of the full form)
    • B01 (the abbreviated form)